Location: ???????
(55.4362°N, 38.1183°E)
Time: 14:38:59
(UTC+00:00)

Cosmos 372 Rocket - Pass Details

Date: 25 October 2021
Orbit: 738 x 768 km, 74.1° (Epoch: 04 December)

Event Time Altitude Azimuth Distance (km) Brightness Sun altitude
Rises 17:13:45 0° 297° (WNW) 3,180 8.5 -27.2°
Reaches altitude 10° 17:18:44 10° 339° (NNW) 2,260 6.9 -27.9°
Maximum altitude 17:19:27 10° 348° (NNW) 2,242 6.8 -28.0°
Drops below altitude 10° 17:20:11 10° 356° (N) 2,262 6.7 -28.1°
Enters shadow 17:22:36 - 20° (NNE) 2,569 6.7 -28.4°
